When you browse on this site, cookies collect data to enhance your experience and personalize the content and advertising you see.
Visit our Privacy Policy to learn more. By continuing to use the site, you agree to this use of cookies and data.
  • In Hungary
  • List of Countries
  • For 7 days
  • Water Temperature
  • Satellite Maps
  • Weather Map
  • News
  • Weather Widgets
  • user-avatar
    Login

    Hourly Weather Slupice

    Today, 22 January, Tuesday

    Time Temperature Precipitation Wind Pressure Humidity
    00:00 -4°C° 0 mm 1 mps 741 mmHg 62%
    01:00 -4°C° 0 mm 1 mps 741 mmHg 61%
    02:00 -4°C° 0 mm 1 mps 740 mmHg 61%
    03:00 -4°C° 0 mm 1 mps 740 mmHg 61%
    04:00 -4°C° 0 mm 1 mps 740 mmHg 61%
    05:00 -4°C° 0 mm 1 mps 739 mmHg 62%
    06:00 -6°C° 0 mm 1 mps 739 mmHg 63%
    07:00 -6°C° 0 mm 1 mps 739 mmHg 60%
    08:00 -4°C° 0 mm 1 mps 739 mmHg 57%
    09:00 -5°C° 0 mm 0 mps 739 mmHg 54%
    10:00 -4°C° 0 mm 0 mps 738 mmHg 51%
    11:00 -3°C° 0 mm 0 mps 738 mmHg 48%
    12:00 -1°C° 0 mm 1 mps 738 mmHg 45%
    13:00 0°C° 0 mm 1 mps 737 mmHg 42%
    14:00 -1°C° 0 mm 1 mps 737 mmHg 45%
    15:00 -1°C° 0 mm 1 mps 736 mmHg 47%
    16:00 -2°C° 0 mm 1 mps 736 mmHg 50%
    17:00 -2°C° 0 mm 1 mps 735 mmHg 54%
    18:00 -5°C° 0 mm 2 mps 735 mmHg 58%
    19:00 -5°C° 0 mm 2 mps 734 mmHg 61%
    20:00 -6°C° 0 mm 2 mps 734 mmHg 64%
    21:00 -6°C° 0 mm 2 mps 734 mmHg 66%
    22:00 -6°C° 0 mm 2 mps 734 mmHg 69%
    23:00 -6°C° 0 mm 2 mps 733 mmHg 70%

    Tomorrow, 23 January, Wednesday

    Time Temperature Precipitation Wind Pressure Humidity
    00:00 -6°C° 0 mm 2 mps 733 mmHg 72%
    01:00 -7°C° 0 mm 2 mps 732 mmHg 74%
    02:00 -7°C° 0 mm 2 mps 732 mmHg 76%
    03:00 -7°C° 0 mm 2 mps 732 mmHg 78%
    04:00 -7°C° 0 mm 2 mps 732 mmHg 79%
    05:00 -8°C° 0 mm 2 mps 731 mmHg 81%
    06:00 -8°C° 0 mm 2 mps 731 mmHg 83%
    07:00 -8°C° 0 mm 2 mps 731 mmHg 85%
    08:00 -8°C° 0 mm 3 mps 731 mmHg 82%
    09:00 -7°C° 0 mm 3 mps 731 mmHg 78%
    10:00 -7°C° 0 mm 3 mps 731 mmHg 75%
    11:00 -7°C° 0 mm 4 mps 731 mmHg 72%
    12:00 -7°C° 0 mm 4 mps 730 mmHg 69%
    13:00 -5°C° 0 mm 4 mps 730 mmHg 66%
    14:00 -7°C° 0 mm 4 mps 730 mmHg 67%
    15:00 -6°C° 0 mm 3 mps 730 mmHg 69%
    16:00 -6°C° 0 mm 3 mps 730 mmHg 70%
    17:00 -6°C° 0 mm 3 mps 730 mmHg 72%
    18:00 -6°C° 0 mm 3 mps 731 mmHg 74%
    19:00 -7°C° 0 mm 3 mps 731 mmHg 75%
    20:00 -7°C° 0 mm 3 mps 731 mmHg 76%
    21:00 -7°C° 0 mm 3 mps 731 mmHg 76%
    22:00 -7°C° 0 mm 3 mps 732 mmHg 76%
    23:00 -7°C° 0 mm 3 mps 732 mmHg 76%

    Day after tomorrow, 24 January, Thursday

    Time Temperature Precipitation Wind Pressure Humidity
    00:00 -7°C° 0 mm 3 mps 732 mmHg 76%
    01:00 -7°C° 0 mm 3 mps 732 mmHg 76%
    02:00 -7°C° 0 mm 3 mps 732 mmHg 76%
    03:00 -8°C° 0 mm 3 mps 732 mmHg 77%
    04:00 -8°C° 0 mm 3 mps 733 mmHg 77%
    05:00 -8°C° 0 mm 3 mps 733 mmHg 78%
    06:00 -7°C° 0 mm 2 mps 733 mmHg 78%
    07:00 -7°C° 0 mm 2 mps 733 mmHg 79%
    08:00 -7°C° 0 mm 3 mps 734 mmHg 77%
    09:00 -7°C° 0 mm 3 mps 734 mmHg 75%
    10:00 -6°C° 0 mm 3 mps 734 mmHg 73%
    11:00 -6°C° 0 mm 3 mps 734 mmHg 71%
    12:00 -6°C° 0 mm 3 mps 734 mmHg 70%
    13:00 -5°C° 0 mm 3 mps 734 mmHg 68%
    14:00 -6°C° 0 mm 3 mps 734 mmHg 69%
    15:00 -6°C° 0 mm 3 mps 734 mmHg 70%
    16:00 -6°C° 0 mm 3 mps 734 mmHg 72%
    17:00 -6°C° 0 mm 3 mps 735 mmHg 73%
    18:00 -6°C° 0 mm 3 mps 735 mmHg 74%
    19:00 -5°C° 0 mm 2 mps 735 mmHg 75%
    20:00 -5°C° 0 mm 2 mps 735 mmHg 75%
    21:00 -5°C° 0 mm 2 mps 736 mmHg 76%
    22:00 -5°C° 0 mm 2 mps 736 mmHg 77%
    23:00 -5°C° 0 mm 2 mps 736 mmHg 78%

    25 January, Friday

    Time Temperature Precipitation Wind Pressure Humidity
    00:00 -5°C° 0 mm 2 mps 736 mmHg 79%
    01:00 -6°C° 0 mm 2 mps 736 mmHg 80%
    02:00 -6°C° 0 mm 2 mps 736 mmHg 81%
    03:00 -6°C° 0 mm 2 mps 735 mmHg 81%
    04:00 -6°C° 0 mm 2 mps 735 mmHg 82%
    05:00 -6°C° 0 mm 2 mps 736 mmHg 81%
    06:00 -7°C° 0 mm 3 mps 736 mmHg 81%
    07:00 -7°C° 0 mm 3 mps 736 mmHg 81%
    08:00 -7°C° 0 mm 3 mps 736 mmHg 79%
    09:00 -7°C° 0 mm 3 mps 736 mmHg 78%
    10:00 -7°C° 0 mm 3 mps 737 mmHg 76%
    11:00 -6°C° 0 mm 3 mps 737 mmHg 75%
    12:00 -6°C° 0 mm 3 mps 737 mmHg 73%
    13:00 -7°C° 0 mm 4 mps 737 mmHg 72%
    14:00 -7°C° 0 mm 4 mps 737 mmHg 72%
    15:00 -7°C° 0 mm 4 mps 737 mmHg 73%
    16:00 -8°C° 0 mm 4 mps 737 mmHg 73%
    17:00 -8°C° 0 mm 4 mps 737 mmHg 74%
    18:00 -8°C° 0 mm 4 mps 737 mmHg 75%
    19:00 -8°C° 0 mm 4 mps 738 mmHg 76%
    20:00 -8°C° 0 mm 4 mps 738 mmHg 77%
    21:00 -8°C° 0 mm 4 mps 738 mmHg 77%
    22:00 -7°C° 0 mm 3 mps 738 mmHg 78%
    23:00 -8°C° 0 mm 3 mps 738 mmHg 78%

    26 January, Saturday

    Time Temperature Precipitation Wind Pressure Humidity
    00:00 -8°C° 0 mm 3 mps 738 mmHg 79%
    01:00 -8°C° 0 mm 3 mps 738 mmHg 80%
    02:00 -9°C° 0.1 mm 4 mps 738 mmHg 80%
    03:00 -9°C° 0.1 mm 4 mps 738 mmHg 81%
    04:00 -9°C° 0.1 mm 4 mps 737 mmHg 82%
    05:00 -9°C° 0.1 mm 4 mps 738 mmHg 83%
    06:00 -9°C° 0.1 mm 4 mps 738 mmHg 83%
    07:00 -9°C° 0.1 mm 4 mps 738 mmHg 84%
    08:00 -9°C° 0.1 mm 4 mps 738 mmHg 83%
    09:00 -8°C° 0.1 mm 3 mps 738 mmHg 82%
    10:00 -8°C° 0.1 mm 3 mps 738 mmHg 81%
    11:00 -7°C° 0 mm 3 mps 738 mmHg 79%
    12:00 -7°C° 0 mm 3 mps 738 mmHg 77%
    13:00 -7°C° 0 mm 3 mps 737 mmHg 76%
    14:00 -7°C° 0 mm 3 mps 737 mmHg 77%
    15:00 -7°C° 0 mm 3 mps 737 mmHg 78%
    16:00 -6°C° 0 mm 2 mps 737 mmHg 79%
    17:00 -6°C° 0 mm 2 mps 737 mmHg 80%
    18:00 -6°C° 0 mm 2 mps 737 mmHg 82%
    19:00 -6°C° 0 mm 2 mps 737 mmHg 83%
    20:00 -6°C° 0 mm 2 mps 737 mmHg 84%
    21:00 -6°C° 0 mm 2 mps 737 mmHg 85%
    22:00 -6°C° 0 mm 2 mps 737 mmHg 86%
    23:00 -4°C° 0 mm 1 mps 737 mmHg 87%

    27 January, Sunday

    Time Temperature Precipitation Wind Pressure Humidity
    00:00 -4°C° 0 mm 1 mps 736 mmHg 87%
    01:00 -4°C° 0 mm 1 mps 736 mmHg 88%
    02:00 -4°C° 0 mm 1 mps 736 mmHg 89%
    03:00 -4°C° 0 mm 1 mps 735 mmHg 90%
    04:00 -4°C° 0 mm 1 mps 735 mmHg 91%
    05:00 -4°C° 0 mm 1 mps 735 mmHg 91%
    06:00 -4°C° 0 mm 1 mps 735 mmHg 91%
    07:00 -4°C° 0 mm 1 mps 735 mmHg 91%
    08:00 -4°C° 0 mm 1 mps 735 mmHg 89%
    09:00 -3°C° 0 mm 1 mps 735 mmHg 88%
    10:00 -3°C° 0 mm 1 mps 735 mmHg 86%
    11:00 -4°C° 0 mm 2 mps 734 mmHg 84%
    12:00 -4°C° 0 mm 2 mps 734 mmHg 82%
    13:00 -3°C° 0 mm 2 mps 734 mmHg 80%
    14:00 -3°C° 0 mm 2 mps 734 mmHg 82%
    15:00 -3°C° 0 mm 2 mps 734 mmHg 84%
    16:00 -3°C° 0 mm 2 mps 734 mmHg 85%
    17:00 -4°C° 0 mm 2 mps 734 mmHg 87%
    18:00 -4°C° 0 mm 2 mps 734 mmHg 89%
    19:00 -5°C° 0 mm 2 mps 734 mmHg 90%
    20:00 -5°C° 0 mm 2 mps 734 mmHg 91%
    21:00 -5°C° 0 mm 2 mps 734 mmHg 91%
    22:00 -5°C° 0 mm 2 mps 734 mmHg 91%
    23:00 -5°C° 0 mm 2 mps 734 mmHg 91%
    Show more